#timestamp,LO_Frequency,Hit,StdDev 
1582902015.8,286047000.6,P
1582902035.6,286046998.1,N
1582902055.5,286047000.9,N
1582902075.3,286046998.5,N
1582902095.2,286047000.6,N
1582902115.9,286047000.5,N
1582902135.7,286046999.8,N
1582902155.6,286047000.9,N
1582902175.4,286047000.0,N
1582902195.2,286047000.5,N
1582902215.1,286047000.2,N
1582902216.0,286047000.2,N
1582902235.8,286047000.9,N
1582902255.7,286047000.6,N
1582902275.5,286047001.2,N
1582902295.3,286046999.9,N
1582902315.2,286047000.7,N
1582902335.0,286047000.6,N
1582902335.9,286047000.6,N
1582902355.7,286047000.3,N
1582902375.6,286047000.9,N
1582902395.4,286046999.8,N
1582902415.3,286047000.2,N
1582902435.1,286047000.2,N
1582902455.8,286047000.3,N
1582902475.7,286047000.6,N
1582902495.5,286047000.5,N
1582902515.4,286046999.8,N
1582902535.2,286047000.2,N
1582902555.0,286046999.9,N
1582902555.9,286046999.9,N
1582902575.8,286047000.2,N
1582902595.6,286046999.7,N
1582902615.4,286046999.8,N
1582902635.3,286047002.8,Y
1582902655.1,286046999.8,P
1582902675.9,286047002.8,P
1582902695.7,286046998.8,N
1582902715.5,286047000.6,N
1582902735.4,286047000.6,N
1582902755.2,286046999.9,N
1582902775.0,286047000.8,N
1582902776.0,286047000.8,N
1582902795.8,286047000.9,N
1582902815.6,286046999.9,N
1582902865.5,286047004.3,E
1582902875.4,286047002.1,N
1582902895.2,286047000.3,P
1582902915.1,286047000.4,N
1582902916.0,286047000.4,N
1582902935.8,286047001.1,N
1582902955.6,286047000.6,N
1582902975.5,286047000.3,N
1582902995.3,286047000.8,N
1582903015.2,286047000.0,N
1582903035.9,286047001.0,N
1582903055.7,286046998.2,Y
1582903075.6,286046998.6,P
1582903095.4,286046998.4,N
1582903115.3,286046999.4,N
1582903135.1,286046998.1,N
1582903136.0,286046998.1,N
1582903155.8,286047000.9,N
1582903175.7,286047000.2,N
1582903195.5,286047000.2,N
1582903215.3,286047000.3,N
1582903235.2,286046998.5,N
1582903255.0,286046998.1,N
1582903255.9,286046998.1,N
1582903275.8,286047000.5,N
1582903295.6,286047000.2,N
1582903315.4,286047001.6,N
1582903335.3,286047002.7,N
1582903355.1,286047002.5,N
1582903375.8,286047001.7,N
1582903395.7,286047004.3,N
1582903415.5,286047002.5,N
1582903435.4,286047002.1,N
1582903455.2,286047002.8,N
1582903475.0,286047002.6,N
1582903475.9,286047002.6,N
1582903495.8,286046999.8,N
1582903515.6,286047002.8,N
1582903535.4,286047002.8,N
1582903555.3,286047002.4,N
1582903575.1,286047002.3,N
1582903595.9,286047002.8,N
1582903615.7,286047002.6,N
1582903635.5,286047002.4,N
1582903655.4,286047001.0,N
1582903675.2,286047000.8,N
1582903695.0,286047000.9,N
1582903695.9,286047000.9,N
1582903715.8,286046998.2,N
1582903735.6,286046998.1,N
1582903755.5,286046998.3,N
1582903775.3,286046998.7,N
1582903795.1,286046996.5,N
1582903815.9,286046999.5,N
1582903835.7,286046997.2,N
1582903855.5,286046998.0,N
1582903875.4,286046995.2,N
1582903895.2,286046995.4,N
1582903915.1,286046995.9,N
1582903916.0,286046995.9,N
1582903935.8,286046994.1,N
1582903955.6,286046992.5,N
1582903975.5,286046992.4,N
1582903995.3,286046990.6,N
1582904015.2,286046990.9,N
1582904035.9,286046990.9,N
1582904055.7,286046991.2,N
1582904075.6,286046989.9,N
1582904095.4,286046987.2,Y
1582904115.2,286046991.1,P
1582904135.1,286046988.9,P
1582904136.0,286046988.9,P
1582904155.8,286046986.9,Y
1582904175.7,286046997.5,P
1582904195.5,286046997.5,N
1582904215.3,286046997.8,N
1582904235.2,286046998.0,N
1582904255.0,286046996.2,N
1582904255.9,286046996.2,N
1582904275.8,286046996.4,N
1582904295.6,286046993.8,Y
1582904315.4,286046998.0,P
1582904335.3,286046995.8,P
1582904355.1,286046994.3,P
1582904375.8,286046994.5,Y
1582904395.7,286046996.6,P
1582904415.5,286046997.4,P
1582904435.4,286046997.6,P
1582904455.2,286046995.8,Y
1582904475.0,286046997.1,P
1582904475.9,286046997.1,P
1582904495.8,286046997.6,P
1582904515.6,286046993.3,Y
1582904535.5,286046997.5,P
1582904555.3,286046996.0,P
1582904575.1,286046993.1,P
1582904595.9,286046989.0,Y
1582904615.7,286046991.7,P
1582904635.5,286046992.9,P
1582904655.4,286046990.6,P
1582904675.2,286046987.4,Y
1582904695.1,286046992.2,P
1582904696.0,286046992.2,P
1582904715.8,286046993.0,P
1582904735.6,286046990.0,Y
15829047551582905555.7,286046922.1,P
1582905575.6,286046920.7,P
1582905595.4,286046918.8,P
